Tracking 31027 objects as of 19-Jul-2025
HD Live streaming from Space Station
objects crossing your sky now

STARLINK-2513

Track STARLINK-2513 now!
10-day predictions
STARLINK-2513 is classified as:


NORAD ID: 48317
Int'l Code: 2021-036AT
Perigee: 552.7 km
Apogee: 556.0 km
Inclination: 53.1 °
Period: 95.6 minutes
Semi major axis: 6925 km
RCS: Unknown
Launch date: April 29, 2021
Source: United States (US)
Launch site: AIR FORCE EASTERN TEST RANGE (AFETR)
Your satellite tracking list
FENGYUN 1C DEB
Track 1 satellite(s)




NASA's NSSDC Master Catalog

Two Line Element Set (TLE):
1 48317U 21036AT  25198.73322547 -.00000258  00000-0  15879-5 0  9994
2 48317  53.0536  66.3762 0002412 134.3114 225.8073 15.06397238232753
Source of the keplerian elements: AFSPC